Curacao Island, Netherlands

7:24 AM AST on February 21, 2017 (GMT -0400)
Willemstad-Hato International

Weather History for TNCC - March, 2014

Change the Weather History Date:

Saturday, March 22, 2014

  Actual Average Record
Temperature  
Mean Temperature 82 °F -  
Max Temperature 85 °F 85 °F 90 °F (2016)
Min Temperature 78 °F 78 °F 73 °F (2003)
Cooling Degree Days 16    
Growing Degree Days 32 (Base 50)    
Moisture  
Dew Point 73 °F    
Average Humidity 75    
Maximum Humidity 83    
Minimum Humidity 61    
Precipitation  
Precipitation 0.00 in - - ()
Sea Level Pressure  
Sea Level Pressure 29.95 in    
Wind  
Wind Speed 14 mph ()    
Max Wind Speed 20 mph    
Max Gust Speed -    
Visibility 6.8 miles    
Events      
Averages and records for this station are not official NWS values.
T = Trace of Precipitation, MM = Missing Value Source: Averaged Metar Reports

Daily Weather History Graph

Daily Weather History Graph

Search for Another Location

Airport or City:

Trip Planner

Search our weather history database for the weather conditions in past years. The results will help you decide how hot, cold, wet, or windy it might be!

Date:

Astronomy

Mar. 22, 2014 Rise Set
Actual Time 6:38 AM AST 6:46 PM AST
Civil Twilight 6:17 AM AST 7:07 PM AST
Nautical Twilight 5:53 AM AST 7:32 PM AST
Astronomical Twilight 5:28 AM AST 7:57 PM AST
Moon No Moon Rise 11:07 AM AST (3/22)
Length of Visible Light 12h 50m
Length of Day
12h 08m
Waning Gibbous, 65% of the Moon is Illuminated
Mar 22
Waning Gibbous
Mar 23
Last Quarter
Mar 30
New
Apr 7
First Quarter
Apr 15
Full

Hourly Weather History & Observations

Time (AST) Temp. Heat Index Dew Point Humidity Pressure Visibility Wind Dir Wind Speed Gust Speed Precip Events Conditions
12:00 AM 80.6 °F 85.4 °F 73.4 °F 79% 29.95 in 6.2 mi ESE 15.0 mph - N/A   Mostly Cloudy
1:00 AM 80.6 °F 85.4 °F 73.4 °F 79% 29.92 in 6.2 mi ESE 12.7 mph - N/A   Mostly Cloudy
2:00 AM 80 °F - 74 °F 76% 29.92 in 9 mi ESE 15.0 mph - -   Haze
2:00 AM 78.8 °F - 73.4 °F 83% 29.92 in 6.2 mi ESE 15.0 mph - N/A   Mostly Cloudy
3:00 AM 78.8 °F - 73.4 °F 83% 29.89 in 6.2 mi ESE 15.0 mph - N/A   Mostly Cloudy
4:00 AM 80.6 °F 85.4 °F 73.4 °F 79% 29.92 in 6.2 mi ESE 16.1 mph - N/A   Mostly Cloudy
5:00 AM 80 °F - 74 °F 77% 29.92 in 9 mi ESE 12.7 mph - -   Haze
5:00 AM 80.6 °F 85.4 °F 73.4 °F 79% 29.92 in 6.2 mi ESE 12.7 mph - N/A   Mostly Cloudy
6:00 AM 78.8 °F - 73.4 °F 83% 29.92 in 6.2 mi ESE 13.8 mph - N/A   Mostly Cloudy
7:00 AM 80.6 °F 85.4 °F 73.4 °F 79% 29.95 in 6.2 mi ESE 15.0 mph - N/A   Mostly Cloudy
8:00 AM 81 °F - 73 °F 71% 29.99 in 7 mi ESE 15.0 mph - -   Mostly Cloudy
8:00 AM 80.6 °F 85.4 °F 73.4 °F 79% 29.98 in 6.2 mi ESE 15.0 mph - N/A   Mostly Cloudy
9:00 AM 82.4 °F 88.2 °F 73.4 °F 74% 30.01 in 6.2 mi East 15.0 mph - N/A   Mostly Cloudy
10:00 AM 82.4 °F 87.2 °F 71.6 °F 70% 30.01 in 6.2 mi ESE 17.3 mph - N/A   Mostly Cloudy
11:00 AM 83 °F - 72 °F 62% 30.01 in 9 mi East 18.4 mph - -   Haze
11:00 AM 82.4 °F 88.2 °F 73.4 °F 74% 30.01 in 6.2 mi East 17.3 mph - N/A   Mostly Cloudy
12:00 PM 84.2 °F 90.9 °F 73.4 °F 70% 29.98 in 6.2 mi East 18.4 mph - N/A   Scattered Clouds
1:00 PM 84.2 °F 90.9 °F 73.4 °F 70% 29.98 in 6.2 mi East 17.3 mph - N/A   Scattered Clouds
2:00 PM 85 °F - 73 °F 61% 29.94 in 9 mi East 17.3 mph - -   Haze
2:00 PM 84.2 °F 90.9 °F 73.4 °F 70% 29.95 in 6.2 mi East 17.3 mph - N/A   Scattered Clouds
3:00 PM 86.0 °F 93.4 °F 73.4 °F 66% 29.92 in 6.2 mi East 18.4 mph - N/A   Scattered Clouds
4:00 PM 84.2 °F 90.9 °F 73.4 °F 70% 29.92 in 6.2 mi East 18.4 mph - N/A   Scattered Clouds
5:00 PM 83 °F - 73 °F 65% 29.91 in 9 mi ESE 17.3 mph - -   Haze
5:00 PM 84.2 °F 90.9 °F 73.4 °F 70% 29.89 in 6.2 mi ESE 17.3 mph - N/A   Scattered Clouds
6:00 PM 82.4 °F 88.2 °F 73.4 °F 74% 29.89 in 6.2 mi East 17.3 mph - N/A   Partly Cloudy
7:00 PM 80.6 °F 85.4 °F 73.4 °F 79% 29.92 in 6.2 mi East 17.3 mph - N/A   Partly Cloudy
8:00 PM 80 °F - 73 °F 73% 29.94 in 9 mi East 19.6 mph - -   Haze
8:00 PM 80.6 °F 85.4 °F 73.4 °F 79% 29.95 in 6.2 mi East 19.6 mph - N/A   Partly Cloudy
9:00 PM 78.8 °F - 73.4 °F 83% 29.95 in 6.2 mi East 17.3 mph - N/A   Partly Cloudy
10:00 PM 80.6 °F 85.4 °F 73.4 °F 79% 29.98 in 6.2 mi ESE 17.3 mph - N/A   Partly Cloudy
11:00 PM 80 °F - 73 °F 74% 30.00 in 9 mi ESE 15.0 mph - -   Haze
11:00 PM 80.6 °F 85.4 °F 73.4 °F 79% 29.98 in 6.2 mi ESE 15.0 mph - N/A   Scattered Clouds